VU2COR-13 Weather Reports


Display with metric or nautical units.
time (UTC)temp
F
wind
direction
speed
MPH
gust
MPH
rain 1hr
in
rain 24hr
in
rain mn
in
humidity
%
barometer
mb
20260508213723 94 0.0 0.0 0.00 0.00 0.00 45 978.1
20260508212723 94 0.0 0.0 0.00 0.00 0.00 45 978.2
20260508211723 94 0.0 0.0 0.00 0.00 0.00 45 978.2
20260508210722 94 0.0 0.0 0.00 0.00 0.00 45 978.2
20260508205723 94 0.0 0.0 0.00 0.00 0.00 45 978.2
20260508204723 95 0.0 0.0 0.00 0.00 0.00 44 978.3
20260508203723 95 0.0 0.0 0.00 0.00 0.00 44 978.3
20260508202723 95 0.0 0.0 0.00 0.00 0.00 44 978.3
20260508201723 95 0.0 0.0 0.00 0.00 0.00 44 978.4
20260508200723 95 0.0 0.0 0.00 0.00 0.00 44 978.5
20260508195722 95 0.0 0.0 0.00 0.00 0.00 44 978.5
20260508194723 94 0.0 0.0 0.00 0.00 0.00 44 978.6
20260508193723 95 0.0 0.0 0.00 0.00 0.00 43 978.6
20260508192723 95 0.0 0.0 0.00 0.00 0.00 43 978.6
20260508191723 95 0.0 0.0 0.00 0.00 0.00 43 978.8
20260508190723 96 0.0 0.0 0.00 0.00 0.00 42 978.8
20260508185723 96 0.0 0.0 0.00 0.00 0.00 42 978.9
20260508184723 96 0.0 0.0 0.00 0.00 0.00 42 978.9
20260508183723 96 0.0 0.0 0.00 0.00 0.00 42 978.9
20260508182722 96 0.0 0.0 0.00 0.00 0.00 42 979.0
20260508181723 96 0.0 0.0 0.00 0.00 0.00 41 978.9
20260508180722 97 0.0 0.0 0.00 0.00 0.00 41 978.9
20260508175722 96 0.0 0.0 0.00 0.00 0.00 41 979.0
20260508173723 96 0.0 0.0 0.00 0.00 0.00 41 979.0
20260508172722 97 0.0 0.0 0.00 0.00 0.00 40 979.1
20260508171722 97 0.0 0.0 0.00 0.00 0.00 40 979.1
20260508170723 97 0.0 0.0 0.00 0.00 0.00 40 979.2
20260508165722 97 0.0 0.0 0.00 0.00 0.00 39 979.2
20260508164723 97 0.0 0.0 0.00 0.00 0.00 39 979.3
20260508163723 97 0.0 0.0 0.00 0.00 0.00 39 979.3
20260508162722 97 0.0 0.0 0.00 0.00 0.00 39 979.4
20260508161723 97 0.0 0.0 0.00 0.00 0.00 39 979.3
20260508160723 98 0.0 0.0 0.00 0.00 0.00 38 979.2
20260508155723 98 0.0 0.0 0.00 0.00 0.00 38 979.2
20260508154722 97 0.0 0.0 0.00 0.00 0.00 38 979.2
20260508153723 98 0.0 0.0 0.00 0.00 0.00 37 979.2
20260508152723 99 0.0 0.0 0.00 0.00 0.00 37 979.3
20260508151723 99 0.0 0.0 0.00 0.00 0.00 37 979.3
20260508150722 99 0.0 0.0 0.00 0.00 0.00 36 979.3
20260508145723 99 0.0 0.0 0.00 0.00 0.00 37 979.2
20260508143723 99 0.0 0.0 0.00 0.00 0.00 36 979.1
20260508142722 99 0.0 0.0 0.00 0.00 0.00 37 979.0
20260508141723 99 0.0 0.0 0.00 0.00 0.00 36 978.9
20260508140722 98 0.0 0.0 0.00 0.00 0.00 36 978.9
20260508135722 98 0.0 0.0 0.00 0.00 0.00 36 978.8
20260508134722 98 0.0 0.0 0.00 0.00 0.00 35 978.7
20260508133722 98 0.0 0.0 0.00 0.00 0.00 35 978.6
20260508132723 98 0.0 0.0 0.00 0.00 0.00 35 978.5
20260508131722 99 0.0 0.0 0.00 0.00 0.00 35 978.5
20260508130722 100 0.0 0.0 0.00 0.00 0.00 34 978.4
20260508125722 100 0.0 0.0 0.00 0.00 0.00 35 978.3
20260508124723 99 0.0 0.0 0.00 0.00 0.00 35 978.3
20260508123722 100 0.0 0.0 0.00 0.00 0.00 35 978.2
20260508122722 100 0.0 0.0 0.00 0.00 0.00 34 978.2
20260508121722 101 0.0 0.0 0.00 0.00 0.00 34 978.1
20260508120723 101 0.0 0.0 0.00 0.00 0.00 34 978.0
20260508115722 101 0.0 0.0 0.00 0.00 0.00 34 978.0
20260508114722 101 0.0 0.0 0.00 0.00 0.00 34 978.0
20260508113722 100 0.0 0.0 0.00 0.00 0.00 34 978.0
20260508112725 102 0.0 0.0 0.00 0.00 0.00 34 977.9
20260508111722 102 0.0 0.0 0.00 0.00 0.00 33 977.9
20260508110722 102 0.0 0.0 0.00 0.00 0.00 34 977.9
20260508105722 101 0.0 0.0 0.00 0.00 0.00 34 978.0
20260508104722 101 0.0 0.0 0.00 0.00 0.00 34 978.1
20260508103722 101 0.0 0.0 0.00 0.00 0.00 34 978.2
20260508102722 102 0.0 0.0 0.00 0.00 0.00 34 978.2
20260508101722 103 0.0 0.0 0.00 0.00 0.00 33 978.2
20260508100722 100 0.0 0.0 0.00 0.00 0.00 34 978.4
20260508095722 100 0.0 0.0 0.00 0.00 0.00 35 978.5
20260508094722 100 0.0 0.0 0.00 0.00 0.00 35 978.5
20260508093722 101 0.0 0.0 0.00 0.00 0.00 34 978.7
20260508092722 100 0.0 0.0 0.00 0.00 0.00 35 978.8
20260508091722 100 0.0 0.0 0.00 0.00 0.00 35 978.9
20260508090722 100 0.0 0.0 0.00 0.00 0.00 35 979.0
20260508085722 101 0.0 0.0 0.00 0.00 0.00 35 979.1
20260508084722 99 0.0 0.0 0.00 0.00 0.00 36 979.4
20260508083722 99 0.0 0.0 0.00 0.00 0.00 36 979.5
20260508082722 99 0.0 0.0 0.00 0.00 0.00 36 979.6
20260508081722 99 0.0 0.0 0.00 0.00 0.00 36 979.6
20260508080722 97 0.0 0.0 0.00 0.00 0.00 37 979.7
20260508075722 98 0.0 0.0 0.00 0.00 0.00 36 979.8
20260508074722 97 0.0 0.0 0.00 0.00 0.00 36 979.9
20260508073722 97 0.0 0.0 0.00 0.00 0.00 36 979.9
20260508072722 97 0.0 0.0 0.00 0.00 0.00 36 980.0
20260508071722 97 0.0 0.0 0.00 0.00 0.00 36 980.1
20260508070722 96 0.0 0.0 0.00 0.00 0.00 36 980.2
20260508065722 96 0.0 0.0 0.00 0.00 0.00 37 980.2
20260508064722 95 0.0 0.0 0.00 0.00 0.00 38 980.2
20260508063722 94 0.0 0.0 0.00 0.00 0.00 38 980.3
20260508062722 95 0.0 0.0 0.00 0.00 0.00 37 980.4
20260508061722 95 0.0 0.0 0.00 0.00 0.00 37 980.6
20260508060722 95 0.0 0.0 0.00 0.00 0.00 38 980.6
20260508055722 95 0.0 0.0 0.00 0.00 0.00 38 980.6
20260508054722 94 0.0 0.0 0.00 0.00 0.00 39 980.7
20260508053722 92 0.0 0.0 0.00 0.00 0.00 39 980.8
20260508052722 93 0.0 0.0 0.00 0.00 0.00 39 980.8
20260508051722 92 0.0 0.0 0.00 0.00 0.00 41 980.8
20260508050722 92 0.0 0.0 0.00 0.00 0.00 41 980.7
20260508045722 92 0.0 0.0 0.00 0.00 0.00 43 980.8
20260508044722 91 0.0 0.0 0.00 0.00 0.00 44 980.8
20260508043722 91 0.0 0.0 0.00 0.00 0.00 44 980.9
20260508042722 91 0.0 0.0 0.00 0.00 0.00 44 980.9
20260508041722 91 0.0 0.0 0.00 0.00 0.00 45 980.9
20260508040722 91 0.0 0.0 0.00 0.00 0.00 46 980.9
20260508035722 90 0.0 0.0 0.00 0.00 0.00 46 980.9
20260508034722 91 0.0 0.0 0.00 0.00 0.00 46 980.9
20260508033722 90 0.0 0.0 0.00 0.00 0.00 47 980.8
20260508032722 90 0.0 0.0 0.00 0.00 0.00 47 980.9
20260508031722 90 0.0 0.0 0.00 0.00 0.00 48 980.7
20260508030722 89 0.0 0.0 0.00 0.00 0.00 50 980.7
20260508025721 89 0.0 0.0 0.00 0.00 0.00 51 980.6
20260508024722 88 0.0 0.0 0.00 0.00 0.00 53 980.4
20260508023722 87 0.0 0.0 0.00 0.00 0.00 54 980.2
20260508022722 88 0.0 0.0 0.00 0.00 0.00 54 980.1
20260508021722 87 0.0 0.0 0.00 0.00 0.00 55 980.1
20260508020722 87 0.0 0.0 0.00 0.00 0.00 55 980.0
20260508015721 87 0.0 0.0 0.00 0.00 0.00 53 979.9
20260508014721 86 0.0 0.0 0.00 0.00 0.00 55 979.7
20260508013722 86 0.0 0.0 0.00 0.00 0.00 55 979.5
20260508012721 86 0.0 0.0 0.00 0.00 0.00 54 979.3
20260508011722 86 0.0 0.0 0.00 0.00 0.00 54 979.3
20260508010722 86 0.0 0.0 0.00 0.00 0.00 54 979.3
20260508005722 86 0.0 0.0 0.00 0.00 0.00 56 979.3
20260508004722 86 0.0 0.0 0.00 0.00 0.00 55 979.2
20260508003722 86 0.0 0.0 0.00 0.00 0.00 57 979.2
20260508002722 86 0.0 0.0 0.00 0.00 0.00 58 979.2
20260508001722 86 0.0 0.0 0.00 0.00 0.00 57 979.1
20260508000722 85 0.0 0.0 0.00 0.00 0.00 60 979.0
20260507235722 87 0.0 0.0 0.00 0.00 0.00 56 978.9
20260507234722 87 0.0 0.0 0.00 0.00 0.00 57 978.9
20260507233722 87 0.0 0.0 0.00 0.00 0.00 58 978.8
20260507232722 87 0.0 0.0 0.00 0.00 0.00 58 978.7
20260507231721 87 0.0 0.0 0.00 0.00 0.00 58 978.7
20260507230722 86 0.0 0.0 0.00 0.00 0.00 62 978.7
20260507225722 85 0.0 0.0 0.00 0.00 0.00 64 978.6
20260507224722 85 0.0 0.0 0.00 0.00 0.00 65 978.6
20260507223722 85 0.0 0.0 0.00 0.00 0.00 62 978.6
20260507222722 86 0.0 0.0 0.00 0.00 0.00 60 978.7
20260507221722 88 0.0 0.0 0.00 0.00 0.00 55 978.7
20260507220722 87 0.0 0.0 0.00 0.00 0.00 56 978.8
20260507215722 88 0.0 0.0 0.00 0.00 0.00 56 978.9
20260507214721 87 0.0 0.0 0.00 0.00 0.00 57 978.8